TimePST,TemperatureF,Dew PointF,Humidity,Sea Level PressureIn,VisibilityMPH,Wind Direction,Wind SpeedMPH,Gust SpeedMPH,PrecipitationIn,Events,Conditions,WindDirDegrees,DateUTC
12:58 AM,19.8,18.5,95,30.50,10.0,Calm,Calm,-,N/A,,Clear,0,2013-01-14 08:58:00
1:58 AM,20.5,19.6,96,30.51,10.0,ESE,3.5,-,N/A,,Clear,120,2013-01-14 09:58:00
2:58 AM,19.9,18.9,96,30.52,10.0,SE,1.2,-,N/A,,Clear,140,2013-01-14 10:58:00
3:58 AM,19.4,18.5,96,30.52,10.0,ESE,2.3,-,N/A,,Clear,120,2013-01-14 11:58:00
4:58 AM,19.2,17.6,93,30.51,10.0,South,2.3,-,N/A,,Clear,180,2013-01-14 12:58:00
5:58 AM,18.9,17.4,94,30.51,10.0,South,2.3,-,N/A,,Clear,170,2013-01-14 13:58:00
6:58 AM,19.8,18.3,94,30.53,10.0,Calm,Calm,-,N/A,,Overcast,0,2013-01-14 14:58:00
7:58 AM,19.9,18.3,93,30.53,10.0,Calm,Calm,-,N/A,,Partly Cloudy,0,2013-01-14 15:58:00
8:58 AM,22.3,20.8,94,30.54,10.0,South,1.2,-,N/A,,Partly Cloudy,180,2013-01-14 16:58:00
9:58 AM,27.3,26.2,96,30.54,10.0,Calm,Calm,-,N/A,,Clear,0,2013-01-14 17:58:00
10:58 AM,29.7,25.9,86,30.54,10.0,SSW,2.3,-,N/A,,Overcast,210,2013-01-14 18:58:00
11:17 AM,32.0,26.6,80,30.51,10.0,South,2.3,-,N/A,,Overcast,170,2013-01-14 19:17:00
11:26 AM,32.0,26.6,80,30.50,10.0,SW,2.3,-,N/A,,Overcast,230,2013-01-14 19:26:00
11:33 AM,32.0,26.6,80,30.51,10.0,SW,2.3,-,N/A,,Overcast,230,2013-01-14 19:33:00
11:53 AM,32.0,28.4,87,30.50,10.0,South,1.2,-,N/A,,Scattered Clouds,170,2013-01-14 19:53:00
11:59 AM,32.2,27.5,83,30.53,10.0,Calm,Calm,-,0.00,,Partly Cloudy,0,2013-01-14 19:59:00
12:10 PM,32.0,28.4,87,30.50,10.0,WSW,2.3,-,N/A,,Clear,250,2013-01-14 20:10:00
12:12 PM,32.0,28.4,87,30.50,10.0,WSW,2.3,-,N/A,,Clear,250,2013-01-14 20:12:00
12:58 PM,34.9,27.1,73,30.53,10.0,Calm,Calm,-,0.00,,Clear,0,2013-01-14 20:58:00
1:58 PM,35.6,28.0,74,30.53,10.0,WSW,3.5,-,N/A,,Overcast,250,2013-01-14 21:58:00
2:48 PM,35.6,28.4,75,30.51,10.0,SW,4.6,-,N/A,,Overcast,230,2013-01-14 22:48:00
2:58 PM,35.2,28.6,77,30.54,10.0,WSW,2.3,-,N/A,,Overcast,240,2013-01-14 22:58:00
3:58 PM,35.4,27.7,73,30.55,10.0,NW,1.2,-,N/A,,Overcast,320,2013-01-14 23:58:00
4:08 PM,35.6,28.4,75,30.51,10.0,Calm,Calm,-,N/A,,Mostly Cloudy,0,2013-01-15 00:08:00
4:48 PM,33.8,28.4,81,30.51,10.0,Variable,2.3,-,N/A,,Mostly Cloudy,0,2013-01-15 00:48:00
4:58 PM,34.2,27.5,77,30.54,10.0,West,2.3,-,N/A,,Mostly Cloudy,280,2013-01-15 00:58:00
5:03 PM,32.0,28.4,87,30.51,10.0,WNW,2.3,-,N/A,,Overcast,300,2013-01-15 01:03:00
5:58 PM,33.6,30.7,89,30.56,10.0,North,4.6,-,N/A,,Overcast,10,2013-01-15 01:58:00
6:33 PM,32.0,32.0,100,30.52,10.0,NNW,1.2,-,N/A,,Overcast,330,2013-01-15 02:33:00
6:58 PM,33.6,31.8,93,30.56,10.0,Calm,Calm,-,N/A,,Overcast,0,2013-01-15 02:58:00
7:58 PM,34.0,32.0,92,30.57,10.0,Calm,Calm,-,N/A,,Overcast,0,2013-01-15 03:58:00
8:43 PM,32.0,32.0,100,30.55,10.0,South,2.3,-,N/A,,Scattered Clouds,190,2013-01-15 04:43:00
8:58 PM,32.2,30.7,94,30.58,10.0,SE,1.2,-,N/A,,Partly Cloudy,140,2013-01-15 04:58:00
9:08 PM,32.0,32.0,100,30.55,10.0,SSE,1.2,-,N/A,,Mostly Cloudy,150,2013-01-15 05:08:00
9:58 PM,30.2,29.8,99,30.57,10.0,Calm,Calm,-,N/A,,Overcast,0,2013-01-15 05:58:00
10:58 PM,29.3,29.1,99,30.58,10.0,SSE,2.3,-,N/A,,Overcast,150,2013-01-15 06:58:00
11:28 PM,28.4,28.4,100,30.57,10.0,South,2.3,-,N/A,,Mostly Cloudy,170,2013-01-15 07:28:00
11:58 PM,28.9,28.8,99,30.58,10.0,SSE,2.3,-,N/A,,Overcast,160,2013-01-15 07:58:00